Theta_e
297 294 294 295 295 295 295 296 298 301 305 311 316 319 322 321 323 327 329 328 325 322 319 318 317 317 319 320 322 325 326 326 326 324 323 324 323 323 324 325 325 325 322 322 324 323 320 320 320 320 321 322 322 323 322 321 323 326 326 327 327 326 323 317 315 319 321 324 326 323 323 322 319 320 322 322 322 322 320 321 323 320 317 317 322 328 331
295 294 294 295 296 296 295 296 299 302 308 312 313 319 323 322 323 326 328 328 325 322 320 320 318 317 318 319 322 326 327 327 326 324 323 322 323 323 324 325 326 326 324 323 325 324 321 320 322 322 321 321 322 322 321 321 323 324 326 327 325 322 321 319 316 317 320 323 325 324 321 320 320 321 325 326 323 323 324 321 322 321 318 319 324 328 329
294 294 294 295 297 298 296 297 300 303 308 311 313 319 322 322 325 326 326 327 325 323 322 321 319 318 318 321 326 329 330 327 326 326 323 321 322 324 324 325 325 324 324 323 325 327 324 321 323 323 322 322 322 321 321 322 323 326 332 332 324 322 325 321 316 317 321 322 321 321 321 322 324 323 324 326 323 323 323 318 317 319 319 321 324 326 328
295 294 295 296 299 300 298 298 301 304 308 311 313 319 323 324 325 324 326 328 326 324 323 322 323 323 322 323 327 330 329 327 326 326 325 322 322 324 324 323 323 323 323 324 325 327 325 322 323 324 324 322 321 321 322 321 326 334 340 337 326 324 328 326 320 319 321 319 319 325 325 322 321 322 323 324 323 325 324 318 318 320 320 322 326 327 328
297 296 298 299 301 302 300 300 304 307 310 311 313 318 322 324 325 324 326 327 326 323 322 322 324 326 326 324 325 329 329 329 328 327 326 325 323 324 324 322 323 323 324 325 324 324 324 323 323 322 323 323 321 322 321 323 333 338 333 328 326 324 324 327 326 322 323 323 323 326 326 322 321 321 324 326 326 327 323 319 321 323 320 322 329 331 329
299 300 301 302 303 301 300 304 309 311 311 312 314 320 322 322 324 324 326 328 326 323 321 321 323 325 326 324 325 328 329 329 330 328 326 326 325 327 326 325 325 324 325 325 324 324 324 324 323 322 322 324 323 322 320 323 334 335 324 324 330 324 321 327 329 325 326 326 325 325 324 324 323 322 324 326 326 326 323 321 325 326 319 321 329 332 330
300 303 304 304 303 300 300 307 311 312 312 313 315 321 324 322 323 323 328 329 327 325 322 321 323 324 326 326 325 327 328 328 329 326 326 327 327 326 327 327 327 324 324 325 326 325 323 322 326 324 323 325 324 323 322 322 327 327 324 329 333 325 323 329 329 325 326 326 324 326 323 322 323 322 323 326 326 326 326 324 327 328 323 323 328 329 328
302 304 304 304 304 301 302 309 312 312 312 313 316 320 323 324 326 327 330 331 329 328 327 325 324 324 325 326 325 326 326 326 328 326 326 328 328 327 327 327 326 325 324 325 326 327 324 324 328 327 325 329 328 324 325 325 324 324 325 332 334 327 325 331 328 321 321 324 324 325 323 321 320 320 323 325 325 326 327 326 328 327 325 327 329 326 326
303 304 304 304 303 301 303 310 312 312 313 315 318 322 323 325 327 326 328 330 330 328 329 328 326 324 323 324 325 326 327 326 327 327 326 326 328 327 327 327 326 325 326 325 324 326 325 325 327 326 326 330 329 327 328 327 327 328 329 331 334 330 327 330 327 318 316 322 324 323 324 322 318 319 323 324 324 324 325 327 329 327 325 326 326 323 326
302 304 305 305 304 301 305 311 312 312 315 318 321 323 323 323 325 325 326 329 330 328 328 328 327 326 324 324 324 326 327 325 326 329 328 324 325 326 327 328 327 326 327 326 325 326 326 325 325 325 324 326 327 328 328 326 327 329 330 329 330 331 327 325 323 316 315 321 324 323 323 320 317 321 325 326 326 326 326 328 330 330 327 325 323 326 331
301 302 304 305 304 302 305 310 312 311 314 318 320 322 322 321 322 325 328 330 329 327 327 327 327 326 325 324 323 324 326 325 325 328 329 326 325 326 327 328 328 327 327 326 326 326 326 325 326 325 324 323 326 327 325 324 325 326 328 328 328 329 326 324 323 317 315 322 326 323 320 318 321 329 331 328 328 328 327 327 328 330 329 327 328 332 333
298 300 302 304 304 303 305 309 311 312 314 317 318 320 321 319 320 323 327 330 329 326 326 327 326 326 324 323 324 323 323 323 324 327 329 328 326 327 327 328 329 328 327 327 326 325 325 325 325 325 324 324 325 325 323 323 324 324 326 328 328 328 326 325 323 318 316 322 325 320 319 322 329 334 333 329 328 328 328 327 327 328 329 329 329 331 331
296 298 300 303 304 305 305 308 311 312 314 316 318 319 319 319 320 323 327 329 328 327 327 326 324 324 324 324 325 324 322 322 323 326 329 329 327 327 327 328 329 329 327 327 327 326 326 326 326 325 324 324 323 324 324 323 324 325 326 327 327 328 327 325 324 320 317 318 318 319 323 330 334 334 332 329 328 328 326 324 323 325 328 328 328 330 330
294 296 299 302 304 305 305 308 310 311 313 315 317 318 318 318 319 322 325 327 329 328 327 328 327 325 325 325 325 326 325 324 325 328 330 329 328 329 328 327 328 327 327 327 328 327 327 326 324 322 323 323 323 323 325 324 324 326 327 326 327 328 327 324 321 320 317 313 313 317 322 328 332 333 332 331 329 328 327 324 324 325 327 327 329 330 330
294 295 298 301 303 304 305 307 309 311 313 315 316 317 317 317 318 320 322 325 327 327 327 328 329 329 329 327 326 327 327 326 328 330 329 328 329 329 327 326 327 327 327 327 327 327 327 324 321 319 319 319 318 319 323 323 323 326 327 327 326 326 328 326 322 320 318 315 314 316 315 318 326 332 332 331 329 328 329 327 326 328 328 327 329 331 330
293 295 297 299 301 304 305 306 308 310 312 314 316 317 317 316 317 319 320 323 326 327 326 327 328 328 329 328 327 327 328 328 329 330 329 328 329 329 328 327 329 328 327 327 326 327 326 323 320 318 318 318 317 317 320 323 326 329 329 328 327 326 327 328 324 320 318 316 316 316 313 316 328 333 331 329 328 328 329 325 324 329 330 327 329 331 330
292 294 296 297 300 302 304 306 308 310 312 313 314 316 317 316 317 318 320 322 325 326 325 324 326 328 328 328 328 328 327 328 330 330 330 329 329 329 328 328 329 328 327 327 327 327 326 324 321 318 318 320 320 318 319 323 327 330 329 327 327 327 327 327 322 318 318 317 316 316 315 322 333 333 328 328 329 328 327 322 323 330 332 328 329 331 331
291 292 294 296 298 300 303 304 307 309 311 312 313 315 316 316 316 317 320 322 324 325 324 322 325 328 328 328 328 329 331 332 332 332 331 330 329 331 330 328 328 327 327 327 327 327 325 323 321 319 319 322 322 320 320 323 325 327 328 326 325 325 325 324 321 318 317 317 316 316 319 330 336 331 328 329 328 325 322 321 327 334 332 330 332 332 331
291 291 293 295 297 299 301 303 305 309 311 311 312 315 316 315 316 317 319 321 323 324 324 323 323 325 327 326 327 329 330 332 333 331 330 330 331 331 331 331 328 327 328 328 327 327 325 323 325 323 321 323 323 322 322 323 324 325 327 326 324 323 323 322 321 319 318 318 317 315 321 333 335 329 329 329 324 323 323 328 334 335 331 331 332 332 332
291 291 291 293 296 298 300 302 304 307 310 310 311 315 316 315 315 316 318 319 321 322 323 322 322 322 323 324 325 326 328 329 331 332 331 331 331 332 332 333 330 327 328 327 326 328 325 323 327 326 322 324 328 326 323 324 326 326 326 326 326 326 322 319 320 321 319 318 316 315 321 333 334 330 330 328 324 326 330 331 331 330 330 331 332 332 332
291 291 290 291 294 298 300 302 303 304 308 310 311 314 316 315 315 315 316 317 319 320 322 321 321 321 321 321 322 323 324 325 326 329 331 330 330 331 332 332 331 331 332 327 325 328 327 325 328 328 326 329 331 327 322 323 328 331 329 328 330 329 323 320 322 324 320 315 316 320 326 333 333 330 330 330 329 332 332 330 329 328 329 330 331 332 333
292 291 291 290 292 297 301 302 302 303 305 309 311 313 314 314 313 313 314 316 318 319 320 320 320 319 319 320 320 320 321 322 323 326 329 330 331 331 332 333 332 332 333 331 329 329 328 328 330 329 328 330 329 327 324 323 325 331 331 328 329 331 331 328 327 327 324 321 324 328 331 332 332 330 330 332 332 332 331 330 329 327 328 330 331 332 333
292 292 291 291 291 295 300 302 302 303 304 306 309 312 313 313 312 312 314 317 318 318 318 318 318 318 319 320 320 319 319 321 322 324 327 329 330 330 332 333 332 331 332 333 334 332 329 330 331 328 328 330 328 327 327 323 323 329 330 328 329 330 332 333 330 327 326 326 328 330 330 330 331 329 330 332 332 331 329 328 328 328 329 330 331 332 332
292 291 292 291 290 292 298 303 304 304 304 305 307 310 312 312 312 312 314 317 317 316 316 316 316 318 319 320 320 320 320 320 321 322 325 327 328 329 331 332 332 332 333 333 334 333 329 330 331 328 329 331 329 328 328 326 325 327 327 328 330 328 326 329 328 325 323 323 326 329 329 329 330 328 329 331 331 330 330 328 328 330 329 329 331 333 332
292 291 291 292 291 291 297 303 305 304 305 307 308 310 312 312 311 312 315 317 316 315 316 316 316 318 318 319 320 320 319 319 319 321 323 325 328 330 331 331 332 334 334 332 332 331 329 329 330 328 330 333 332 330 331 329 328 329 327 328 331 330 326 326 326 324 323 323 325 328 328 328 328 327 329 332 331 329 328 328 329 331 329 329 332 332 331
292 291 291 291 291 290 295 302 305 304 304 307 309 310 312 311 311 312 315 316 316 315 315 316 318 318 318 318 319 318 318 318 319 320 321 323 325 328 330 331 332 333 332 330 331 331 329 329 328 327 331 334 332 331 333 331 330 331 330 328 330 330 327 326 326 324 324 325 328 328 325 325 327 326 328 332 333 330 329 329 330 328 327 328 331 330 329
292 291 291 291 291 290 293 300 304 304 305 308 309 310 311 312 311 312 314 314 316 315 313 314 317 317 316 316 317 317 317 318 319 319 321 322 323 325 327 329 330 331 330 330 330 329 327 327 328 328 330 332 330 329 331 332 332 332 330 328 329 330 329 328 326 325 326 328 330 331 328 326 327 327 328 331 332 332 332 331 329 327 327 329 330 329 331
292 291 291 291 291 291 292 298 303 304 306 308 310 310 311 312 311 312 312 312 314 315 313 314 315 315 315 316 316 316 316 317 319 319 320 322 322 323 325 327 328 329 330 330 329 327 326 328 330 330 329 329 328 328 329 330 331 329 328 329 330 330 330 328 326 327 328 328 329 331 330 328 328 328 327 328 329 330 332 332 330 328 328 329 329 329 331
293 292 291 291 291 291 292 296 302 305 307 309 311 312 312 312 312 311 310 311 312 313 313 312 312 312 314 315 315 316 316 317 319 320 320 321 322 322 324 325 326 327 328 328 326 325 325 326 329 330 330 330 330 329 328 329 329 327 327 329 329 328 328 328 327 328 328 325 325 327 328 328 327 326 326 326 326 326 329 330 329 328 328 329 328 329 331
293 293 291 290 291 291 291 296 302 306 307 309 311 311 310 311 312 311 310 310 312 313 313 311 310 310 312 312 314 316 317 316 317 319 319 321 322 322 323 324 324 325 326 325 325 324 324 324 326 329 330 329 329 329 328 328 328 328 328 327 326 326 326 326 326 326 325 324 324 325 325 326 326 324 323 325 325 325 326 328 328 328 328 328 328 329 329
294 293 291 290 291 291 291 296 303 306 307 309 311 310 310 311 312 311 309 309 312 314 313 311 310 309 309 310 313 315 317 317 317 318 319 320 322 322 322 322 323 323 324 324 323 323 323 323 324 327 329 327 326 327 328 326 327 329 328 326 325 325 324 324 325 324 323 323 323 323 324 325 326 325 325 326 327 327 327 328 328 328 328 328 328 328 328
294 293 291 290 291 290 292 298 304 306 308 309 310 309 310 310 310 310 308 309 312 314 312 311 311 307 306 309 312 313 315 316 316 317 318 319 321 322 322 322 322 323 323 322 322 322 322 323 324 326 328 327 325 326 326 325 326 328 327 325 325 325 324 325 324 323 322 322 322 323 325 326 326 326 328 328 329 329 329 329 328 327 328 328 327 327 328
294 293 292 291 291 290 294 301 305 305 306 307 307 307 309 309 308 309 309 310 313 313 311 312 312 308 307 310 311 311 313 314 315 316 317 318 320 321 322 322 322 322 322 321 321 321 322 322 323 324 326 326 325 326 326 325 325 326 326 326 326 326 326 325 325 323 323 322 322 323 325 325 325 326 327 326 327 328 328 328 328 328 328 327 326 326 327
294 293 292 291 290 291 296 304 306 305 307 308 309 309 309 308 308 309 310 311 313 312 311 312 312 309 308 310 311 312 312 312 313 314 316 317 319 320 320 321 322 321 322 321 321 321 322 322 322 323 325 325 325 326 326 325 323 324 326 326 326 326 326 326 326 325 323 322 322 323 324 324 324 325 326 325 325 326 328 328 328 328 327 326 325 326 327
294 293 291 291 291 293 299 304 306 306 308 309 309 310 309 307 307 308 310 313 313 311 310 311 311 310 310 308 310 314 314 312 312 314 315 317 318 319 319 321 321 321 321 322 321 321 321 321 322 322 323 324 325 325 325 324 322 323 323 323 323 324 326 326 326 325 324 322 322 322 322 323 323 324 325 324 324 326 327 327 328 327 326 325 325 326 326
293 292 291 291 294 298 302 305 305 307 308 309 309 309 307 305 305 308 310 313 313 312 312 310 310 312 312 309 311 315 314 311 312 314 315 316 318 318 319 319 320 320 320 321 321 322 320 320 322 321 321 322 324 324 323 322 321 322 322 322 321 322 324 324 324 324 324 322 321 321 321 322 322 323 324 324 324 325 326 327 327 326 325 325 325 326 325
293 291 291 294 299 303 305 305 305 307 308 307 307 307 305 305 307 309 311 312 312 312 313 312 311 312 313 312 313 314 313 313 313 315 315 316 317 317 318 318 318 319 320 320 321 321 320 320 321 321 321 321 322 322 321 321 322 322 322 322 321 321 321 321 322 324 324 323 322 322 321 321 321 322 323 323 324 325 326 327 326 325 325 325 326 325 325
292 292 295 300 303 303 303 304 306 306 306 306 306 307 307 308 309 308 308 309 309 309 310 311 312 312 312 312 313 313 313 314 314 314 314 315 315 316 317 317 317 318 319 319 319 320 320 321 320 320 321 320 320 320 320 320 321 321 322 322 322 321 321 321 322 323 324 324 324 324 323 322 322 322 322 323 324 324 326 327 326 325 325 326 326 325 324
294 296 300 304 303 302 304 305 305 305 305 306 308 308 307 306 307 306 305 305 306 307 308 309 310 310 310 311 312 312 312 313 314 314 315 316 316 316 316 316 316 316 316 317 318 319 320 321 319 319 320 320 320 320 320 319 320 321 321 321 322 322 322 322 322 323 324 324 324 324 324 324 324 323 323 323 323 324 325 326 325 325 325 325 325 324 324
298 301 303 303 302 304 305 304 303 304 306 306 307 306 305 304 305 306 306 305 305 306 307 308 308 309 310 311 312 312 312 312 314 316 316 316 317 317 315 315 315 315 315 316 317 317 318 319 318 318 319 319 318 319 319 319 320 320 320 320 321 322 322 321 321 322 322 322 322 323 323 323 323 323 323 323 322 323 324 325 325 325 325 324 324 323 323
302 303 303 302 303 305 304 303 304 306 307 305 303 303 304 305 305 305 306 306 306 307 308 308 308 308 309 310 312 312 312 312 313 314 315 316 316 316 316 315 315 315 315 316 316 316 317 317 318 318 318 318 318 319 319 319 320 319 319 320 321 321 321 321 321 321 320 320 321 322 322 323 323 324 324 324 323 323 323 323 324 325 325 324 323 322 322
300 301 302 302 303 304 304 305 306 305 303 302 302 303 303 304 305 304 304 306 307 308 308 309 309 309 309 309 310 311 312 312 312 312 313 315 314 314 315 315 315 315 316 316 316 317 317 317 317 318 318 319 319 319 319 319 319 318 318 319 320 320 320 321 320 320 320 320 321 321 322 323 323 324 325 324 323 323 323 323 323 324 324 323 322 322 322
299 301 301 302 303 304 303 304 304 302 301 301 303 303 303 303 303 304 304 305 307 308 308 308 309 310 309 309 310 310 311 312 311 311 312 313 313 313 314 316 316 316 315 315 316 317 317 316 316 317 318 319 318 318 318 318 318 318 318 319 319 319 320 320 320 319 320 320 320 321 321 322 323 323 324 324 324 323 323 322 323 323 323 323 322 322 321
301 301 302 302 302 302 302 302 302 302 301 301 301 302 302 302 302 304 305 305 305 306 307 307 308 308 308 308 309 309 310 310 310 310 311 311 312 313 314 315 316 315 314 314 315 316 316 316 316 317 317 317 317 317 318 318 318 318 318 318 319 319 319 319 319 319 319 319 319 320 320 320 321 322 322 323 324 324 323 323 322 322 323 323 322 322 321
300 300 300 300 300 300 301 301 301 300 300 300 300 301 302 303 303 304 306 306 305 306 307 307 307 308 308 308 309 309 309 308 308 310 311 310 310 312 313 314 314 313 312 313 314 315 316 316 316 317 317 317 317 317 317 317 317 318 318 318 318 318 319 319 319 319 319 319 319 319 319 319 320 321 321 322 323 323 324 324 322 322 322 323 322 321 321
299 299 299 299 299 299 299 300 301 300 299 300 300 301 302 304 306 306 307 307 306 306 306 306 307 308 308 308 307 308 309 308 307 308 309 309 309 310 311 312 313 313 313 313 313 314 315 315 316 317 317 317 316 317 317 316 316 317 317 317 317 317 318 318 318 318 318 318 318 319 319 319 319 319 320 321 322 322 322 323 323 322 322 322 322 321 321
299 299 298 297 297 297 297 299 301 302 301 302 302 302 303 305 306 306 306 306 306 306 307 306 307 307 307 307 307 308 308 308 307 307 308 309 309 309 310 311 311 312 313 314 313 313 313 314 316 317 317 316 316 316 316 316 315 316 316 316 316 316 316 317 317 317 317 318 318 318 318 318 318 319 319 319 321 321 322 322 322 322 322 322 321 321 321
298 298 297 296 296 297 298 299 301 302 303 304 304 303 304 306 306 305 305 305 305 306 307 306 306 306 306 307 308 307 307 307 308 307 308 308 308 308 309 310 310 311 312 312 312 312 314 316 316 316 315 315 315 315 315 315 314 315 315 315 315 315 316 316 316 316 316 317 317 317 318 318 318 318 318 319 320 320 321 322 322 321 321 321 321 321 320
297 298 297 297 297 299 299 300 301 302 304 305 304 304 305 305 305 305 305 304 304 305 305 305 306 306 306 306 306 307 307 308 307 307 307 308 308 308 309 310 311 311 311 310 311 313 315 316 316 315 314 314 313 314 314 313 313 313 314 313 314 314 314 315 315 315 315 316 316 316 317 317 317 318 318 318 319 319 320 321 322 321 321 320 320 320 320
297 297 297 298 299 300 300 300 301 302 303 304 304 304 304 304 304 305 305 305 304 305 304 304 304 305 306 306 306 306 307 308 307 307 308 308 308 308 309 310 310 310 310 309 311 314 315 315 314 314 314 313 312 313 313 312 312 312 312 312 312 312 312 313 313 314 314 315 315 315 316 316 317 317 317 317 317 318 318 319 320 321 321 320 319 319 319
296 297 297 298 299 300 301 301 301 302 303 304 304 304 304 305 305 306 306 305 305 304 304 304 303 303 304 306 306 306 306 307 307 308 308 308 308 308 308 308 308 308 310 312 313 314 314 314 313 313 313 312 312 312 312 311 311 311 311 310 310 310 310 310 312 313 313 313 314 314 315 315 315 316 317 317 317 317 318 318 319 320 320 319 319 318 318
296 296 297 298 299 300 301 302 302 302 303 304 304 304 304 305 304 305 305 305 304 304 304 304 303 303 303 304 306 306 306 306 306 307 307 308 308 308 308 308 308 310 311 313 314 313 312 312 313 312 312 312 311 311 311 310 310 310 310 309 309 308 308 308 310 310 311 311 312 313 314 314 315 315 317 317 317 317 318 318 319 319 319 319 318 318 318
Wind_Speed
10 10 10 9 9 10 13 14 15 17 17 14 13 11 5 6 4 4 9 11 10 8 6 7 7 7 9 12 12 9 7 8 9 9 9 8 7 7 7 5 7 9 7 5 7 9 6 8 9 7 7 7 5 4 5 7 2 7 4 5 3 2 2 2 3 3 2 9 12 5 3 4 7 4 3 4 1 3 1 1 1 2 3 4 2 4 0
7 8 9 8 8 10 12 13 13 13 14 16 13 8 4 5 6 4 10 13 11 7 6 7 7 8 11 13 11 8 8 10 10 9 10 9 7 8 10 9 9 7 5 5 6 6 4 5 9 7 5 5 5 4 6 6 2 5 5 1 0 1 3 2 3 3 3 7 10 5 3 2 4 2 2 5 4 1 2 2 0 2 5 5 4 3 1
6 6 7 7 8 10 10 11 12 10 11 13 9 5 5 5 5 4 7 12 10 7 7 8 7 9 12 11 9 8 8 10 11 11 10 10 9 8 8 10 10 8 7 8 5 5 7 4 5 7 5 6 7 6 6 6 2 6 7 3 1 1 1 2 3 1 1 2 4 5 3 3 5 5 3 4 3 4 3 2 1 2 5 5 3 3 3
5 6 6 7 8 9 9 10 11 10 10 11 7 6 5 3 4 4 5 8 7 7 8 9 7 7 9 8 8 9 8 9 11 11 10 11 11 8 8 11 12 11 10 9 9 9 9 6 4 7 6 5 6 8 7 4 5 10 7 2 2 1 2 1 2 1 3 4 3 6 6 4 5 6 7 5 1 5 4 3 2 2 2 3 4 5 6
5 5 5 6 7 9 8 8 9 9 10 10 7 5 5 3 4 4 3 4 6 7 9 9 7 8 8 6 8 11 11 9 9 9 9 9 10 9 8 11 11 11 10 9 9 10 10 9 8 6 5 4 4 8 7 4 10 9 4 2 2 2 2 2 3 2 6 7 8 10 9 9 9 3 5 8 2 6 3 3 2 1 1 0 4 7 8
4 5 5 6 8 9 8 7 7 8 10 8 4 4 4 4 5 4 1 2 6 7 8 10 10 11 9 5 6 11 12 10 9 9 10 9 9 8 7 10 12 11 11 9 7 9 9 9 8 7 6 6 6 6 6 6 11 8 7 6 1 4 1 4 3 4 10 11 11 11 9 10 11 4 1 6 4 3 2 2 1 1 3 2 6 9 6
4 4 5 6 8 8 7 6 6 8 10 6 2 3 4 4 6 4 4 4 6 7 9 12 13 12 10 6 7 11 14 14 12 10 9 9 9 9 7 9 11 12 12 10 7 8 7 5 6 8 6 4 5 6 6 7 13 9 5 5 2 3 2 2 2 5 11 13 10 11 11 9 9 8 6 6 4 2 3 1 3 3 4 4 1 1 3
3 4 5 6 7 7 6 5 6 9 9 4 3 5 5 4 4 4 5 6 7 7 8 9 10 10 9 7 8 10 13 15 13 11 10 9 9 11 11 10 11 13 13 11 9 9 8 5 5 6 3 1 3 4 3 3 7 8 5 6 3 2 1 3 4 5 9 11 10 11 10 9 8 8 7 6 3 1 0 1 4 3 2 4 4 3 5
3 4 5 6 8 8 6 6 7 8 6 3 5 6 5 7 7 5 4 5 5 6 6 6 7 8 8 8 8 10 12 14 13 11 12 12 10 10 12 12 11 12 12 12 10 8 10 10 6 6 4 2 2 5 0 3 3 1 2 5 2 1 2 4 5 4 6 8 8 7 6 8 8 6 5 5 3 2 2 2 2 2 2 3 3 2 0
4 5 6 7 8 8 7 7 8 6 4 4 5 5 8 9 8 5 4 5 6 6 6 6 7 7 6 8 10 10 11 13 13 8 8 13 14 13 12 11 8 9 12 11 6 4 9 8 2 5 6 3 3 4 3 3 3 3 3 3 2 2 3 4 4 4 5 4 3 4 5 6 5 3 5 6 4 3 2 1 4 2 0 2 2 1 4
4 5 6 8 9 8 8 7 8 7 4 3 5 6 8 7 6 5 3 5 6 6 6 6 7 7 9 11 12 11 12 14 13 8 6 11 13 13 13 10 7 7 7 2 3 2 8 5 2 4 6 5 6 6 6 5 6 5 4 3 2 4 4 4 4 4 3 2 3 4 5 4 1 2 6 8 5 2 2 2 1 4 3 1 2 5 5
4 5 6 8 9 9 9 7 7 6 3 3 4 7 7 7 6 5 3 5 6 6 7 7 7 10 12 12 11 13 14 14 13 11 9 10 10 10 11 10 7 5 2 6 6 4 7 5 5 8 7 7 12 11 10 11 9 5 5 5 4 5 5 3 4 4 2 2 1 3 4 1 1 2 3 7 6 5 4 5 4 2 4 4 4 7 7
4 5 6 7 8 9 9 7 6 5 2 2 4 5 7 8 6 5 3 5 6 5 6 8 11 13 12 10 9 11 13 13 13 10 7 8 9 8 7 8 7 4 3 4 6 7 6 6 7 10 10 10 13 14 13 13 12 10 8 7 5 4 4 3 4 4 3 3 3 3 2 4 5 4 2 3 4 3 3 5 7 5 3 4 4 6 7
5 5 5 7 8 8 8 7 6 5 1 1 3 4 6 7 5 4 3 3 4 5 6 7 9 11 11 11 10 9 9 11 11 6 4 8 9 7 7 7 8 8 6 5 6 6 5 5 6 8 9 9 9 9 11 13 12 15 14 10 7 5 3 3 3 3 4 4 4 2 2 5 6 4 3 0 2 2 1 2 6 6 4 5 4 6 8
5 6 5 6 7 7 7 6 5 5 1 2 1 3 3 5 6 5 4 3 4 5 5 4 6 10 10 9 10 8 7 8 8 5 6 9 8 6 8 9 7 7 7 5 5 5 5 5 6 6 7 7 7 6 8 9 10 11 11 9 7 5 3 3 2 2 3 3 4 4 3 3 4 5 5 3 1 1 1 3 6 4 6 6 6 7 8
5 6 6 6 7 8 8 7 6 5 2 1 2 4 2 3 6 6 5 4 3 3 4 5 7 9 9 7 9 9 7 6 6 5 7 10 9 8 7 5 4 5 7 6 5 6 5 5 7 6 6 8 7 6 7 6 4 5 6 5 7 7 5 3 3 3 3 4 3 4 4 1 5 9 7 5 4 3 0 4 4 5 9 7 7 8 8
6 6 6 7 7 8 9 8 6 5 3 2 3 4 2 4 6 6 5 3 3 5 6 7 8 6 6 5 6 7 5 5 5 4 4 7 10 10 7 5 5 7 10 7 5 6 6 5 7 7 7 9 8 7 8 5 2 2 6 6 7 7 5 4 4 5 5 5 4 4 2 2 8 10 8 6 6 3 1 3 1 6 9 7 7 9 9
5 6 7 7 7 8 9 9 7 5 3 2 3 5 3 5 7 7 5 4 3 4 4 6 7 5 4 5 7 6 3 3 3 2 3 5 5 4 3 4 6 8 10 8 5 6 6 5 7 7 6 8 8 6 6 6 4 4 6 5 6 7 5 4 5 6 5 5 5 4 0 4 7 9 9 8 6 3 2 1 2 5 6 6 8 9 10
5 6 7 8 8 8 8 9 8 5 3 3 4 5 3 4 7 7 5 3 2 4 5 7 7 5 5 6 7 5 1 3 3 2 3 4 1 5 8 5 6 7 8 8 6 5 5 6 7 6 6 7 6 4 3 6 6 7 6 3 4 5 4 4 5 5 5 4 5 5 1 2 2 7 9 6 3 1 1 1 1 4 6 7 8 9 10
5 6 7 8 8 8 7 8 8 6 3 3 5 5 3 4 6 6 5 4 3 5 5 7 10 8 8 7 7 6 3 3 2 1 2 2 3 6 5 4 5 5 5 7 6 4 5 6 6 5 5 5 2 3 2 4 5 6 8 7 5 4 4 5 5 4 5 5 5 4 1 1 3 7 8 3 1 2 3 3 2 4 6 7 7 8 9
6 6 6 7 8 8 7 7 7 6 3 2 3 4 3 3 6 6 5 5 4 3 3 9 13 11 9 8 7 7 7 6 4 2 2 1 2 1 1 3 4 2 2 4 4 3 4 5 5 3 2 1 0 3 2 3 2 5 5 6 2 2 3 4 3 2 3 4 3 1 2 4 6 6 3 2 2 3 1 2 3 4 5 6 6 8 9
6 6 6 7 7 8 8 7 7 7 3 1 1 3 3 4 6 7 7 6 6 6 7 11 13 12 10 8 6 6 6 7 7 6 4 3 1 1 1 5 5 3 2 2 3 2 2 1 2 1 1 1 2 4 4 3 2 2 3 4 2 4 4 2 1 2 3 2 2 4 4 5 5 2 2 4 5 3 1 2 4 4 4 4 6 8 9
6 6 5 6 7 7 7 7 6 7 5 1 1 3 4 6 8 9 8 7 7 7 11 13 11 11 11 8 5 4 4 4 5 6 6 4 3 2 2 3 3 3 2 3 3 1 1 2 1 1 1 1 1 3 4 4 3 3 4 4 6 7 6 2 2 3 3 2 3 6 6 6 5 2 3 5 3 2 1 2 3 4 4 4 5 8 9
7 6 6 6 6 6 7 7 6 6 5 3 3 4 5 6 9 11 8 5 3 3 6 6 5 7 6 2 3 3 2 1 4 4 4 3 2 1 2 1 2 3 3 3 4 3 1 2 2 1 1 2 3 2 1 2 2 3 4 3 4 6 6 5 5 3 1 1 4 6 5 6 6 4 4 4 3 3 3 3 2 5 4 3 6 8 9
7 7 7 6 6 6 7 7 6 5 4 3 5 7 6 5 9 10 6 3 2 2 3 3 4 5 4 1 3 4 1 2 3 2 2 3 2 1 3 2 0 1 3 4 4 2 1 2 1 1 1 2 2 2 2 1 3 5 3 0 0 1 2 4 6 6 3 1 3 5 5 4 5 5 5 5 4 4 3 3 3 6 4 4 7 9 9
7 8 7 7 7 7 7 7 6 5 3 2 4 8 7 5 8 9 4 3 4 2 2 3 2 3 3 5 5 1 2 3 4 3 3 4 1 0 2 3 2 2 3 3 3 2 2 2 2 0 1 1 0 1 2 2 2 5 3 1 1 3 3 3 4 5 5 2 2 3 4 4 4 4 5 5 5 5 4 3 6 7 6 6 8 9 10
7 8 8 7 7 7 7 7 6 4 3 4 5 6 5 4 6 8 6 5 4 1 2 3 1 3 6 8 5 2 3 5 5 3 4 4 1 0 3 3 2 2 2 2 2 2 2 3 2 1 1 2 2 2 2 2 2 4 3 2 2 5 5 4 5 4 1 3 6 5 2 3 2 1 1 4 6 5 5 5 7 8 8 8 9 10 11
7 8 8 7 7 7 6 6 6 3 3 4 5 4 3 3 4 6 6 5 4 2 2 4 3 5 8 9 5 5 6 5 3 3 4 3 2 1 3 4 3 2 2 2 1 3 4 2 1 1 1 1 2 2 1 1 2 5 4 3 3 3 2 2 1 1 4 5 7 6 4 4 4 5 5 2 6 5 5 6 7 8 9 9 10 11 12
7 9 9 7 7 7 6 6 5 1 3 3 4 2 1 2 4 4 5 4 3 4 4 4 4 3 3 4 5 6 7 4 2 4 4 4 4 4 3 3 3 2 1 1 1 3 4 2 2 1 2 2 1 1 1 1 2 4 5 5 4 2 3 3 3 4 4 5 5 5 3 2 1 3 4 1 4 6 6 7 7 6 9 9 9 12 13
8 9 9 8 7 6 5 6 4 1 2 2 3 3 1 2 3 3 5 4 3 4 4 2 2 2 3 4 6 6 5 4 4 5 6 5 5 5 5 4 3 2 2 2 1 2 3 1 2 3 3 2 1 1 2 3 3 4 7 6 6 6 5 5 4 3 3 3 4 3 2 0 1 3 3 2 4 5 6 7 8 8 10 11 10 10 14
8 9 9 8 7 5 4 5 3 3 1 6 5 3 1 1 1 3 6 5 3 3 4 3 2 2 2 3 5 6 6 5 4 5 6 6 5 6 6 4 3 3 3 3 2 2 2 2 2 3 3 2 0 2 4 5 4 2 2 4 6 5 4 4 3 2 2 1 2 3 1 1 1 0 1 2 1 3 4 5 8 9 10 12 12 11 14
8 9 9 8 7 4 3 4 2 2 2 6 5 2 2 2 3 4 5 4 4 4 4 3 3 2 1 2 4 8 10 7 4 4 5 5 5 5 5 4 4 3 1 2 2 3 2 2 3 4 2 3 1 3 5 5 4 2 4 3 2 2 3 3 1 1 2 1 2 3 1 2 4 3 2 4 4 2 3 6 10 11 11 11 12 12 14
8 8 9 8 6 3 1 2 1 2 1 2 2 0 1 3 5 5 3 2 4 5 4 2 2 2 1 1 2 6 8 6 4 4 5 5 5 4 3 4 4 1 1 0 2 2 2 2 3 3 2 2 1 4 4 5 5 4 5 3 2 2 2 1 2 3 3 2 2 2 1 2 3 3 2 3 5 4 5 8 11 11 11 10 10 11 14
7 9 9 8 5 2 0 1 2 2 2 3 2 2 2 2 3 4 2 1 3 4 3 2 3 2 1 1 0 3 5 5 5 5 5 6 6 5 3 3 3 2 2 3 3 3 2 2 3 3 2 2 3 4 4 6 8 5 3 2 2 1 1 2 3 3 1 0 1 2 1 1 1 0 1 2 5 5 6 9 10 11 10 10 9 11 13
7 9 9 6 3 0 1 1 1 2 4 4 1 3 1 4 3 2 3 3 3 2 2 2 3 3 3 3 2 3 4 5 4 4 5 6 6 5 3 3 3 3 3 2 3 4 4 3 3 4 4 4 4 4 4 6 8 6 4 4 3 2 1 2 2 1 2 2 2 2 0 1 2 2 2 2 4 5 6 8 8 10 10 9 9 12 12
7 9 7 3 1 1 1 2 3 4 3 1 3 2 3 5 4 3 4 4 5 3 1 1 2 3 3 2 1 2 2 4 4 3 4 5 5 3 3 3 4 3 3 3 3 4 4 3 2 4 5 4 4 5 5 7 8 7 7 6 4 2 1 3 2 1 1 1 2 2 1 2 3 3 2 2 3 5 7 8 9 11 10 9 10 11 11
7 6 3 1 2 2 4 3 3 4 4 4 4 2 2 3 2 3 4 5 5 4 3 2 2 2 2 1 1 1 2 2 2 3 3 3 4 3 3 4 4 3 3 4 4 4 4 3 3 4 5 4 5 6 6 6 6 6 6 6 3 2 3 4 1 1 1 3 4 3 2 2 3 3 2 3 3 5 7 8 8 10 10 10 10 11 12
5 3 3 4 3 3 3 2 2 4 5 3 2 1 2 3 3 3 3 3 3 3 3 3 3 2 2 1 1 2 2 1 2 3 2 1 1 2 3 3 3 2 3 4 5 4 4 4 4 4 5 5 7 8 6 5 5 4 3 5 5 4 5 4 1 1 2 4 3 2 1 1 1 2 2 3 4 4 5 6 7 9 10 9 10 12 15
3 2 4 7 5 2 1 1 2 3 3 3 3 3 2 3 3 2 2 2 2 2 3 4 3 2 2 2 1 1 2 2 2 2 1 1 1 1 3 2 2 2 4 5 4 5 5 5 4 4 5 6 8 8 7 5 4 2 3 5 6 6 6 6 5 4 5 5 4 4 3 3 3 3 2 3 4 4 5 5 7 10 10 11 13 15 15
5 6 6 5 3 2 4 3 5 4 4 4 4 3 2 2 2 1 1 2 3 2 2 3 3 1 1 2 0 2 3 3 2 1 2 1 1 1 1 1 1 2 4 4 3 4 4 5 4 4 6 7 6 8 9 6 1 5 6 6 6 7 7 6 6 7 7 7 7 7 6 6 7 6 3 3 4 5 5 6 7 9 10 14 17 17 17
5 5 4 1 2 4 4 4 6 5 3 3 3 2 2 2 1 1 1 3 3 2 1 2 3 3 2 2 1 1 2 3 3 2 1 1 1 1 2 1 0 1 4 4 2 2 3 4 4 5 6 4 2 3 4 4 6 8 6 5 6 7 7 6 6 7 7 7 7 7 7 7 8 7 3 3 4 5 6 7 8 9 10 15 19 18 19
3 3 4 4 2 4 5 5 6 4 2 1 1 2 2 2 1 1 2 2 2 2 2 2 1 2 3 2 1 1 2 2 2 1 1 1 1 2 1 1 1 2 3 2 2 1 2 3 4 4 3 3 5 5 3 5 7 7 5 5 6 6 6 6 6 6 7 6 6 7 7 7 7 7 5 3 5 6 7 7 9 10 10 14 19 19 20
1 2 3 2 3 6 5 5 4 2 1 1 1 2 2 2 2 3 2 2 1 1 3 2 0 2 3 1 1 2 2 1 1 0 0 1 1 1 0 1 1 2 1 1 1 3 3 4 4 3 3 5 5 5 5 5 4 4 4 4 5 6 6 6 6 6 6 7 7 7 7 7 6 7 7 5 4 6 7 7 9 10 10 13 18 19 20
2 4 4 3 3 4 3 2 2 2 1 2 2 2 3 3 4 4 3 3 2 3 4 3 3 3 3 1 0 2 2 0 0 0 1 1 1 1 1 2 2 2 1 1 2 3 4 3 1 1 3 4 3 4 4 3 3 2 2 3 5 7 7 7 7 7 7 8 9 9 8 7 7 6 7 7 6 6 7 7 9 10 11 12 16 17 19
4 5 3 2 1 1 1 2 2 2 2 3 3 3 4 5 5 4 4 4 2 2 3 2 3 3 5 3 1 1 1 1 0 1 2 2 2 2 2 2 2 2 3 3 3 4 4 3 1 2 3 3 3 3 2 2 2 1 1 3 5 6 7 7 7 7 8 9 10 9 8 8 8 8 7 7 7 7 7 7 9 11 11 13 15 16 18
4 3 2 2 1 2 2 2 2 3 3 3 4 5 5 2 2 4 3 3 2 3 3 1 2 1 5 4 1 0 1 2 2 1 2 2 3 2 2 1 1 2 3 4 4 4 5 4 3 3 4 4 3 2 1 2 3 3 2 3 5 6 7 7 8 8 9 10 10 10 9 9 10 10 9 8 7 7 8 7 8 10 12 13 14 15 17
3 2 3 2 2 3 4 3 3 4 4 4 5 6 4 1 5 6 3 0 1 3 5 3 1 2 1 1 1 1 2 3 3 3 2 2 3 3 2 2 2 3 3 4 5 4 3 2 4 5 4 4 2 2 2 3 3 3 3 4 5 6 7 8 8 9 10 10 10 10 10 11 11 10 10 10 8 7 7 6 5 8 11 12 14 15 17
2 2 3 2 2 3 4 4 5 5 4 3 4 4 2 1 2 4 4 2 3 2 4 4 1 0 1 1 1 2 3 3 3 3 2 2 2 3 3 3 3 3 3 4 5 4 2 3 5 5 5 3 1 2 2 3 4 5 4 4 5 6 7 7 8 9 10 10 10 10 11 12 12 11 10 10 9 8 7 5 5 8 10 12 14 15 17
1 2 3 2 2 3 4 4 5 5 4 3 3 2 1 2 1 3 5 3 1 1 2 2 1 1 3 2 1 2 3 3 2 3 3 2 2 2 3 4 4 3 4 5 4 2 4 5 5 5 5 4 2 1 2 3 3 4 5 5 6 7 7 8 8 9 10 10 10 10 11 12 11 10 10 11 10 10 8 6 6 8 10 11 13 14 16
2 2 3 3 3 3 4 4 5 5 4 4 3 3 3 4 2 2 5 5 2 1 2 1 1 2 2 3 3 4 3 2 2 3 4 4 3 3 3 4 4 4 5 4 1 4 6 5 4 4 5 4 2 2 2 2 3 4 5 6 6 7 7 7 8 8 9 10 11 11 11 11 11 11 11 11 11 11 11 9 8 8 9 10 12 14 15
2 2 4 4 4 4 3 4 4 5 4 3 4 3 3 2 2 3 3 3 2 2 3 3 2 2 2 3 3 3 3 3 3 4 4 4 3 3 4 5 5 4 3 1 3 4 4 4 3 3 3 3 2 1 2 3 4 4 5 5 6 7 7 8 8 8 9 9 10 11 11 11 12 12 11 10 10 10 10 10 8 8 8 9 11 14 15
2 2 3 4 5 5 5 4 4 4 4 2 1 2 3 5 6 6 4 2 2 3 3 2 3 3 4 3 3 3 2 3 4 5 5 4 3 4 5 5 3 1 1 3 4 3 3 3 3 2 2 2 2 1 2 3 4 5 5 5 6 7 7 8 8 8 9 10 10 11 12 13 13 12 11 10 9 8 8 8 7 7 7 9 11 12 13
Wind_Direction
303 306 311 319 325 321 319 323 332 339 341 347 345 330 282 239 250 176 167 179 190 206 228 220 211 223 231 232 233 228 232 239 224 202 204 218 220 201 195 225 247 235 195 178 244 250 209 154 154 191 217 200 195 182 204 253 314 85 54 354 13 349 300 253 286 303 315 313 306 275 191 261 276 275 289 285 182 129 94 54 251 298 346 351 58 93 210
299 305 310 317 321 320 321 325 333 341 347 349 341 320 271 266 281 233 188 192 209 227 228 220 214 218 232 242 245 239 230 225 224 213 201 205 213 204 196 202 216 223 209 205 244 277 261 168 155 173 189 176 196 197 184 225 265 95 98 38 301 299 333 334 320 335 348 332 319 289 198 235 284 278 275 292 308 43 64 54 87 25 13 10 61 97 185
302 306 312 317 317 320 324 327 330 336 342 345 335 296 291 297 283 257 200 195 213 235 235 233 227 219 225 234 245 243 225 222 229 226 213 210 212 210 207 210 213 215 213 209 221 254 252 220 137 137 160 173 182 180 184 210 210 86 92 100 202 201 8 324 319 358 282 302 313 288 290 345 327 308 265 244 304 1 20 29 30 34 19 15 65 111 167
302 308 318 319 316 320 325 324 327 332 336 336 320 278 285 286 251 237 193 194 218 234 241 253 259 244 233 223 226 231 224 221 227 229 227 217 211 214 217 216 217 216 216 216 214 218 225 227 188 161 174 197 179 170 189 193 95 77 70 24 300 193 148 321 352 21 273 282 270 256 266 293 292 305 313 294 344 54 22 357 36 43 16 34 85 116 152
305 317 325 320 314 320 329 328 327 331 331 330 317 271 264 280 266 242 198 204 221 222 234 246 249 251 253 230 208 217 225 221 213 222 235 226 216 222 222 219 220 212 211 222 223 218 221 222 216 200 194 217 182 172 186 127 92 97 126 149 291 265 168 61 16 322 276 270 252 236 233 251 258 274 339 304 301 85 48 343 74 132 292 80 137 145 156
315 328 327 320 317 321 331 333 329 329 326 325 319 263 240 248 260 258 293 253 225 215 222 227 228 236 246 247 209 209 218 222 210 211 226 233 226 222 221 223 224 213 208 219 225 224 228 222 215 215 207 194 163 167 203 150 124 155 189 150 151 296 41 66 29 291 274 266 258 252 241 248 263 261 228 266 267 103 116 295 10 79 4 22 166 171 173
325 338 333 329 329 326 327 332 334 330 322 313 285 262 256 261 265 281 341 301 252 242 231 222 224 227 228 236 226 214 213 218 215 205 212 225 215 206 221 230 227 220 213 215 222 224 235 244 229 223 213 182 160 173 209 165 147 176 199 120 74 321 59 95 240 254 268 271 269 268 260 250 258 264 249 244 248 175 171 273 21 43 0 346 100 170 291
339 349 340 336 336 334 334 341 345 334 321 301 230 237 247 277 297 320 338 305 271 270 259 236 227 221 217 227 235 229 218 215 215 207 206 216 208 205 214 218 230 239 227 215 217 216 223 243 251 246 238 188 220 216 204 150 159 189 181 113 67 330 167 209 249 260 272 270 257 252 255 257 256 257 262 265 266 251 148 23 29 32 346 356 24 337 302
353 352 341 337 337 342 353 356 353 344 323 277 230 241 276 311 310 305 309 301 283 266 253 242 238 224 212 216 228 237 230 219 217 211 209 215 211 211 219 212 219 242 242 231 228 225 225 222 230 257 242 165 273 278 301 96 115 200 149 128 142 260 228 226 239 261 278 269 253 252 261 263 258 254 266 276 277 296 332 55 67 28 353 352 333 283 328
357 356 346 340 339 353 7 2 360 359 326 279 261 291 345 339 311 293 275 279 287 271 240 226 235 236 223 215 216 228 237 232 226 219 223 226 214 210 227 225 213 230 242 235 223 238 246 233 215 273 254 190 199 224 186 144 148 180 197 176 194 244 263 268 266 273 282 277 285 329 325 286 264 293 316 305 281 266 278 127 125 118 66 309 307 86 93
354 357 351 343 342 356 5 2 7 9 353 335 310 321 0 358 313 305 280 259 271 274 252 229 226 233 234 223 214 218 231 234 228 217 225 235 220 207 215 222 219 233 241 202 109 258 273 292 2 263 255 263 247 211 185 202 210 207 196 176 232 257 251 265 277 275 281 340 18 344 306 279 269 0 327 313 304 293 297 283 172 141 157 179 105 122 129
352 356 354 347 343 352 358 360 12 14 7 11 326 307 346 353 308 289 278 266 271 267 255 244 236 236 236 228 216 215 223 228 228 222 220 229 228 215 208 206 213 221 149 102 119 197 247 261 257 240 230 255 259 240 213 206 200 209 224 194 202 246 257 268 278 274 245 117 101 268 259 236 111 71 347 327 334 358 345 310 294 194 180 192 159 151 158
357 1 2 352 340 345 352 356 15 24 2 6 353 324 340 343 306 274 282 277 265 264 267 262 249 240 238 238 231 226 227 227 226 226 230 231 227 217 201 199 213 209 143 150 174 186 210 222 238 245 235 231 239 236 226 212 183 176 210 215 199 222 259 281 284 282 262 189 206 242 186 146 155 141 86 343 332 346 336 300 289 272 208 194 183 153 154
2 6 5 351 335 336 347 355 15 26 14 56 35 353 339 342 320 294 310 291 269 290 300 288 271 258 243 232 231 238 240 235 227 212 216 234 231 216 198 207 220 208 186 200 202 189 205 218 223 240 239 232 231 225 226 227 200 182 194 206 201 202 231 254 258 266 272 270 263 251 165 165 177 156 125 137 313 330 330 279 275 264 197 175 176 149 153
6 6 0 347 334 331 342 354 10 20 53 145 70 317 325 346 329 302 306 304 294 301 298 301 319 307 279 237 222 231 236 235 233 212 207 225 237 232 215 208 203 184 171 188 211 200 204 219 220 225 225 224 227 220 220 225 207 187 187 196 201 201 206 229 238 226 245 281 293 283 269 225 174 139 124 126 83 5 355 283 268 229 162 163 164 149 157
4 5 1 352 342 337 343 353 7 12 33 148 304 299 294 351 329 308 296 289 282 288 301 328 338 321 300 263 235 233 225 219 231 229 217 216 218 224 223 191 150 165 184 191 206 206 201 211 217 220 222 221 218 213 217 220 196 184 193 204 217 216 203 213 256 260 255 268 273 273 287 299 126 127 127 132 133 122 120 280 260 161 145 155 158 152 161
0 0 2 359 351 348 348 352 3 14 31 43 333 319 338 2 340 317 292 281 272 264 289 330 337 311 297 288 263 253 239 228 231 231 231 224 213 208 201 163 152 195 210 206 207 211 205 210 218 219 221 221 218 211 206 189 115 191 204 206 228 235 220 211 236 252 254 258 263 267 283 103 124 133 136 131 127 133 201 266 239 130 135 146 149 152 163
354 355 2 2 357 354 352 351 356 6 28 30 314 293 313 355 343 321 291 277 285 270 289 352 353 325 319 313 297 301 299 266 266 251 235 239 229 227 232 194 179 198 213 212 213 214 205 208 220 224 226 222 222 223 201 165 140 181 189 193 226 231 222 220 234 246 240 234 252 269 51 104 130 140 133 125 128 151 214 222 119 126 131 135 145 154 160
351 352 1 5 3 360 354 353 353 349 350 346 305 277 288 354 350 335 311 282 277 284 307 352 358 344 347 330 310 325 325 236 270 305 244 229 314 3 340 288 219 201 210 213 214 218 213 211 218 224 229 224 226 242 211 182 179 174 158 172 232 221 211 226 233 246 251 244 246 244 193 84 133 131 123 131 153 151 130 113 127 136 130 133 147 152 153
353 350 354 1 6 5 357 352 351 343 321 320 315 290 288 355 359 349 338 332 313 281 299 357 7 355 354 359 354 358 347 252 262 338 270 264 28 32 9 291 233 203 202 212 213 216 217 213 216 229 230 224 263 314 246 194 220 211 178 177 213 212 205 224 226 229 246 258 266 263 244 207 164 133 132 176 230 98 126 145 130 130 135 143 152 149 150
355 351 350 355 0 5 3 353 348 345 320 287 318 295 276 15 14 353 335 329 314 274 314 359 354 337 333 346 348 345 348 355 10 357 284 321 37 77 30 321 298 264 227 224 213 212 233 222 213 240 269 183 256 287 230 170 265 266 199 167 195 241 210 220 233 229 233 238 247 258 117 150 161 144 133 155 118 100 136 139 121 135 147 153 154 150 157
354 352 349 348 351 1 3 352 346 346 326 237 317 308 302 3 360 338 323 304 273 255 281 310 317 309 299 305 314 321 336 352 1 351 332 352 55 194 339 355 339 323 320 288 233 202 257 265 184 175 1 122 197 236 226 187 202 230 154 144 211 242 225 225 238 243 276 310 101 122 128 144 162 161 67 96 124 146 178 121 133 147 152 156 155 154 163
349 351 347 344 345 351 357 356 352 350 340 321 5 343 346 357 346 334 323 291 259 262 279 287 297 294 273 249 248 289 311 329 359 8 356 356 21 19 6 2 331 315 332 335 328 343 31 19 60 129 99 5 276 246 234 226 215 185 164 182 215 207 195 224 255 235 279 323 128 154 161 151 156 159 85 95 132 163 166 175 157 140 146 163 153 154 163
344 344 342 343 339 337 350 0 3 2 9 54 70 21 360 355 349 346 335 297 268 293 288 268 260 280 280 196 188 252 276 358 15 21 9 359 19 346 291 331 353 330 332 342 338 333 351 9 16 84 74 4 341 321 286 279 271 232 206 216 219 191 183 217 228 194 155 162 161 166 163 151 159 162 123 123 160 164 186 225 160 124 147 170 145 149 156
343 340 339 340 334 332 348 5 15 20 30 80 66 24 3 353 351 348 335 302 311 329 312 275 226 242 280 330 228 247 288 6 332 330 325 331 356 309 286 312 345 281 312 327 313 288 295 330 341 24 9 349 4 11 358 328 307 290 276 173 154 217 235 241 225 208 216 224 136 124 124 145 179 181 159 162 180 172 195 220 126 121 154 155 136 149 153
344 341 338 337 331 330 346 6 23 32 41 88 57 22 8 6 1 353 343 316 305 273 283 299 233 202 256 263 240 244 7 309 290 298 299 298 310 51 311 309 257 240 288 317 305 286 289 278 252 128 50 251 219 272 230 212 279 296 284 163 186 255 273 292 273 244 236 265 42 105 159 184 200 189 165 154 154 163 193 187 139 143 163 150 145 160 158
345 345 339 334 331 329 341 6 24 40 78 96 65 30 12 16 13 11 17 356 322 240 224 270 296 28 328 294 274 293 284 254 250 267 270 262 243 304 306 295 265 245 257 264 276 275 258 249 245 221 166 171 186 214 213 195 251 267 241 177 212 247 240 256 296 296 225 52 29 33 114 133 93 44 99 131 137 158 185 178 164 168 167 155 157 165 158
346 346 337 331 330 327 336 6 22 44 114 96 60 28 17 35 27 15 17 8 340 316 285 285 310 342 320 298 277 257 251 248 252 258 256 252 229 233 299 297 281 254 234 214 236 260 247 235 260 268 224 182 190 196 161 152 237 254 236 188 204 251 231 195 251 34 74 58 38 39 56 74 55 17 5 93 141 163 183 194 199 186 166 161 165 163 161
341 342 335 331 330 324 332 4 17 73 128 73 26 351 356 74 50 9 2 12 347 311 299 291 287 293 304 303 287 253 233 231 272 272 264 259 229 202 221 274 280 284 277 229 251 267 252 205 130 179 243 260 223 157 142 170 217 250 244 212 174 109 81 95 114 110 88 56 46 53 50 48 40 344 330 274 175 180 186 204 219 196 166 168 172 166 166
333 336 332 329 326 317 332 3 13 139 143 354 321 277 234 116 86 1 344 4 357 314 303 294 288 307 324 304 290 276 243 217 237 254 255 257 247 224 218 228 242 273 280 249 235 273 272 234 165 180 205 227 230 206 219 215 223 252 245 209 153 116 96 82 75 88 97 69 41 31 16 3 214 251 266 247 205 194 190 202 215 200 176 173 176 175 172
326 329 329 329 324 311 332 2 30 121 39 332 303 258 239 119 81 342 332 345 348 306 288 278 281 309 314 273 262 270 264 246 241 254 253 253 253 244 234 227 218 228 248 250 232 238 261 268 225 198 175 145 148 253 241 232 234 245 195 143 132 125 112 98 90 94 125 97 354 325 299 104 85 220 269 331 278 198 193 207 209 195 176 174 181 184 173
321 325 327 326 319 306 334 5 34 119 13 337 325 331 19 17 9 341 323 319 310 288 278 281 277 268 272 251 234 241 248 254 262 258 244 236 237 238 235 236 232 224 264 302 275 229 207 221 240 232 178 107 125 251 252 251 242 178 136 140 168 155 110 100 124 237 242 227 275 286 262 83 57 47 35 358 332 251 219 226 209 185 168 175 187 183 167
319 325 327 323 315 306 348 23 56 133 172 305 307 323 6 6 10 0 336 303 296 288 281 290 278 241 233 330 238 218 225 241 254 241 224 210 212 223 229 236 244 237 112 264 269 245 207 209 228 222 158 116 240 254 253 255 249 204 173 203 236 169 131 154 245 252 253 236 240 267 259 70 41 37 43 329 294 264 235 227 207 178 169 184 191 174 160
319 324 324 319 310 296 216 121 109 125 216 247 208 151 205 294 349 8 2 324 290 277 263 274 279 245 195 306 265 185 209 234 234 220 210 194 193 206 210 209 232 234 190 197 239 249 221 216 230 222 188 187 229 247 247 251 256 245 207 220 268 230 198 244 252 248 258 337 321 313 357 66 18 45 106 273 268 245 227 223 200 171 174 193 185 164 160
320 323 320 315 312 232 160 183 299 275 253 250 151 112 222 274 301 359 2 333 291 260 218 229 263 254 223 229 197 161 213 244 241 224 211 186 180 204 216 186 192 213 198 203 248 245 224 213 227 228 215 201 208 222 239 250 257 259 248 241 241 231 269 301 309 8 56 44 344 299 217 197 233 218 193 246 242 208 211 220 194 170 181 194 173 161 164
318 318 314 316 95 127 207 231 262 266 260 347 26 15 272 274 291 311 304 287 274 274 276 225 245 264 260 241 155 111 228 243 245 252 236 191 175 204 233 211 206 207 195 206 241 246 237 226 225 233 234 221 209 213 229 249 262 268 268 260 233 188 274 312 319 31 57 347 298 278 250 245 251 234 207 233 223 200 207 212 188 176 188 189 168 162 166
316 316 309 136 136 254 258 227 219 262 294 344 2 331 256 254 263 259 260 254 246 253 283 280 261 282 304 309 28 1 297 242 221 242 240 203 183 187 199 213 217 200 190 212 227 234 236 232 231 239 240 237 234 225 220 237 266 282 296 302 295 260 274 281 267 96 328 287 270 260 259 267 269 255 225 218 213 207 214 210 188 182 191 186 168 164 165
303 286 255 240 226 240 251 208 205 265 282 296 298 246 209 214 224 213 216 229 219 213 250 268 256 254 292 306 308 318 319 294 227 220 212 216 230 194 182 206 221 198 210 226 215 205 223 230 226 236 244 248 252 249 235 230 246 262 308 331 334 324 296 277 224 115 306 289 281 280 278 271 284 281 252 233 222 214 218 214 195 190 191 177 157 159 165
290 265 251 244 228 200 68 124 202 232 240 234 248 254 212 201 224 212 191 223 226 200 215 238 236 228 249 250 173 47 0 329 268 226 160 79 296 205 180 192 196 191 230 237 195 177 210 227 215 224 246 248 248 253 254 252 256 291 13 15 12 6 351 346 4 7 343 327 321 313 301 292 292 287 257 240 233 219 214 216 209 201 189 165 153 159 166
238 240 237 225 196 90 73 121 168 199 217 217 229 250 228 210 233 228 176 214 229 209 202 216 211 207 287 302 3 54 16 352 342 6 43 38 3 346 225 215 170 181 222 230 176 163 213 229 205 208 234 238 234 239 238 228 171 48 38 30 22 13 4 2 357 342 328 319 306 294 285 280 280 274 248 221 228 224 210 209 220 216 188 164 161 168 169
236 239 246 238 97 93 108 157 186 212 238 232 223 236 230 207 217 249 230 227 223 197 177 215 203 182 197 250 249 72 35 19 13 6 4 25 357 295 239 211 34 228 221 211 163 162 230 236 213 212 227 236 263 261 226 171 96 65 44 29 23 14 4 2 353 334 324 316 305 299 298 293 289 285 260 195 209 231 224 211 221 225 192 164 164 169 168
292 328 352 10 83 138 167 198 209 220 254 266 236 235 228 197 194 222 233 241 241 188 170 211 234 141 140 186 233 57 39 23 18 358 338 57 14 282 247 131 26 270 231 186 153 174 225 234 228 218 193 105 62 40 47 82 81 70 53 36 30 21 12 8 360 341 330 322 313 314 317 311 304 301 289 227 203 222 231 221 221 226 204 170 165 169 170
276 270 300 302 190 189 203 216 208 204 258 264 202 205 221 216 220 222 208 217 268 215 156 165 236 89 107 112 48 64 53 4 7 31 249 172 129 302 289 143 198 263 309 26 211 218 220 228 230 207 135 111 90 63 51 51 60 73 72 52 37 32 25 17 6 356 354 353 349 342 333 320 307 297 288 274 237 221 227 224 221 227 214 179 169 175 178
239 234 245 238 206 204 216 217 187 182 222 224 207 202 196 194 208 217 196 184 211 191 154 160 189 167 151 172 170 112 112 302 300 177 228 226 187 165 174 184 212 247 273 244 233 233 231 234 229 111 120 126 105 76 62 39 22 43 65 42 35 38 36 25 15 11 13 10 3 356 347 335 322 305 287 280 270 249 237 224 216 222 217 188 178 184 185
215 199 204 212 219 225 215 193 184 207 226 223 218 221 214 201 199 193 167 153 162 156 152 206 236 168 140 143 206 142 137 159 196 191 217 214 194 197 207 208 232 259 244 223 224 234 230 215 161 119 140 135 99 79 82 53 11 348 30 41 35 35 34 29 21 16 16 12 2 357 356 350 339 329 313 299 285 269 257 236 214 213 212 195 186 190 187
205 189 199 198 226 256 228 192 186 214 219 210 216 235 240 217 103 102 126 154 158 137 139 208 282 158 136 140 147 176 171 171 173 204 233 212 185 198 234 242 246 271 253 231 227 237 232 204 168 157 154 139 123 128 110 59 16 346 4 40 36 30 32 32 24 14 10 7 1 359 3 2 355 346 336 324 310 289 275 255 221 209 207 200 195 195 188
202 230 236 204 198 230 223 210 216 230 226 211 219 240 257 55 83 89 94 41 9 118 132 134 11 14 78 112 122 188 201 197 182 184 207 208 189 191 212 220 212 223 235 230 231 242 241 169 136 130 124 120 144 173 123 63 9 335 358 29 26 23 27 28 22 14 9 4 1 1 2 359 355 348 339 331 325 313 298 276 231 213 210 206 204 201 189
190 237 235 210 202 217 217 222 236 240 238 228 223 231 259 39 105 122 115 42 355 38 118 121 89 302 198 198 228 213 204 194 178 178 189 212 208 193 187 200 209 211 217 229 236 237 195 124 121 122 116 110 159 179 113 57 1 340 358 21 19 17 19 18 13 8 4 0 0 1 358 350 344 342 341 338 331 321 308 287 247 225 217 213 214 208 191
296 273 241 233 241 233 229 239 247 241 227 218 220 214 211 243 234 133 119 110 11 1 82 66 358 237 183 165 220 230 200 173 175 189 192 202 219 203 182 186 200 212 220 226 226 183 121 113 117 122 116 96 50 27 87 63 3 342 359 15 11 7 10 12 5 359 356 357 358 356 350 343 339 341 346 344 337 327 318 299 261 234 221 218 223 218 197
270 272 252 245 249 244 227 226 243 250 229 196 193 213 216 214 207 135 124 127 137 173 158 145 295 266 198 168 193 209 190 171 199 212 195 191 213 222 200 188 197 216 230 233 179 124 128 133 137 137 127 107 55 353 12 24 350 337 353 7 2 358 3 3 355 350 354 354 349 343 341 340 340 341 341 337 330 324 317 301 275 249 229 223 229 227 209
224 254 260 253 256 267 258 226 229 252 249 205 192 215 223 185 99 76 90 108 133 203 201 185 201 237 222 192 200 206 185 169 197 213 203 193 199 212 215 212 212 214 209 131 96 113 137 144 142 147 137 112 79 341 326 332 323 324 344 357 353 351 357 356 351 352 354 347 337 334 336 334 332 329 325 320 318 315 307 295 278 256 236 230 235 233 217
205 236 267 265 262 273 276 254 229 241 263 275 37 65 73 77 70 57 52 94 187 231 238 209 197 213 211 199 208 225 213 186 195 211 215 208 198 205 218 224 220 184 88 91 100 113 125 117 111 118 121 111 105 300 301 310 314 321 336 347 346 346 349 348 346 350 350 341 334 333 330 324 320 319 317 315 313 308 301 297 287 260 237 234 241 239 225